Change the Weather History Date:

Wednesday, July 31, 2013

  Actual Average (KRIC) Record (KRIC)
Temperature  
Mean Temperature 72 °F 79 °F  
Max Temperature 82 °F 89 °F 101 °F (1954)
Min Temperature 63 °F 69 °F 55 °F (1932)
Degree Days  
Heating Degree Days 0 0  
Month to date heating degree days 0  
Since 1 June heating degree days 7  
Since 1 July heating degree days 0  
Cooling Degree Days 8 14  
Month to date cooling degree days 443  
Year to date cooling degree days 919  
Since 1 June cooling degree days 758  
Growing Degree Days 22 (Base 50)    
Moisture  
Dew Point 69 °F    
Average Humidity 88    
Maximum Humidity 100    
Minimum Humidity 68    
Precipitation  
Precipitation 0.04 in 0.16 in 1.92 in (1960)
Month to date precipitation 4.51  
Year to date precipitation 25.33  
Snow  
Snow 0.00 in 0.00 in 0.00 in (2002)
Month to date snowfall 0.0  
Since 1 July snowfall 0.0  
Snow Depth -    
Sea Level Pressure  
Sea Level Pressure 30.13 in    
Wind  
Wind Speed 2 mph (SSE)    
Max Wind Speed 12 mph    
Max Gust Speed 16 mph    
Visibility 10 miles    
Events      
T = Trace of Precipitation, MM = Missing Value Source: NWS Daily Summary

Daily Weather History Graph

Daily Weather History Graph

Search for Another Location

Airport or City:

Trip Planner

Search our weather history database for the weather conditions in past years. The results will help you decide how hot, cold, wet, or windy it might be!

Date:

Astronomy

Jul. 31, 2013 Rise Set
Actual Time 6:10 AM EDT 8:15 PM EDT
Civil Twilight 5:41 AM EDT 8:44 PM EDT
Nautical Twilight 5:05 AM EDT 9:20 PM EDT
Astronomical Twilight 4:27 AM EDT 9:58 PM EDT
Moon 1:04 AM EDT (7/31) 3:29 PM EDT (7/31)
Length of Visible Light 15h 03m
Length of Day
14h 05m
Waning Crescent, 32% of the Moon is Illuminated
Jul 31
Waning Crescent
Aug 6
New
Aug 14
First Quarter
Aug 20
Full
Aug 28
Last Quarter

Hourly Weather History & Observations

Time (EDT) Temp. Heat Index Dew Point Humidity Pressure Visibility Wind Dir Wind Speed Gust Speed Precip Events Conditions
12:15 AM 68.7 °F - 64.8 °F 87% 30.17 in 10.0 mi Calm Calm - N/A   Clear
12:35 AM 68.4 °F - 65.7 °F 91% 30.17 in 10.0 mi Calm Calm - N/A   Clear
12:55 AM 68.9 °F - 65.3 °F 88% 30.17 in 10.0 mi Calm Calm - N/A   Clear
1:15 AM 68.0 °F - 65.3 °F 91% 30.17 in 10.0 mi Calm Calm - N/A   Clear
1:35 AM 66.9 °F - 64.9 °F 93% 30.17 in 10.0 mi Calm Calm - N/A   Clear
1:55 AM 65.7 °F - 64.6 °F 96% 30.17 in 10.0 mi Calm Calm - N/A   Clear
2:15 AM 64.4 °F - 64.0 °F 99% 30.16 in 10.0 mi Calm Calm - N/A   Clear
2:35 AM 65.7 °F - 65.7 °F 100% 30.16 in 10.0 mi Calm Calm - N/A   Clear
2:55 AM 64.9 °F - 64.9 °F 100% 30.17 in 10.0 mi Calm Calm - N/A   Clear
3:15 AM 64.8 °F - 64.8 °F 100% 30.17 in 10.0 mi Calm Calm - N/A   Clear
3:35 AM 63.5 °F - 63.5 °F 100% 30.16 in 10.0 mi Calm Calm - N/A   Clear
3:55 AM 63.9 °F - 63.9 °F 100% 30.16 in 10.0 mi Calm Calm - N/A   Clear
4:15 AM 63.3 °F - 63.3 °F 100% 30.16 in 7.0 mi Calm Calm - N/A   Clear
4:35 AM 63.9 °F - 63.9 °F 100% 30.16 in 10.0 mi Calm Calm - N/A   Clear
4:55 AM 63.0 °F - 63.0 °F 100% 30.17 in 10.0 mi Calm Calm - N/A   Clear
5:15 AM 63.9 °F - 63.9 °F 100% 30.17 in 10.0 mi ENE 3.5 mph - N/A   Clear
5:35 AM 63.9 °F - 63.9 °F 100% 30.17 in 10.0 mi Calm Calm - N/A   Clear
5:55 AM 64.4 °F - 64.4 °F 100% 30.17 in 10.0 mi Calm Calm - N/A   Clear
6:15 AM 64.2 °F - 64.2 °F 100% 30.17 in 10.0 mi Calm Calm - N/A   Clear
6:35 AM 64.4 °F - 64.4 °F 100% 30.17 in 10.0 mi Calm Calm - N/A   Clear
6:55 AM 64.9 °F - 64.9 °F 100% 30.18 in 10.0 mi Calm Calm - N/A   Clear
7:15 AM 66.6 °F - 66.6 °F 100% 30.18 in 10.0 mi Calm Calm - N/A   Clear
7:35 AM 67.5 °F - 67.5 °F 100% 30.18 in 7.0 mi Calm Calm - N/A   Clear
7:55 AM 68.9 °F - 68.9 °F 100% 30.18 in 10.0 mi Calm Calm - N/A   Clear
8:15 AM 70.5 °F - 70.5 °F 100% 30.17 in 10.0 mi Calm Calm - N/A   Clear
8:35 AM 72.5 °F - 71.8 °F 98% 30.17 in 10.0 mi Calm Calm - N/A   Clear
8:55 AM 74.3 °F - 72.0 °F 92% 30.17 in 10.0 mi ESE 3.5 mph - N/A   Clear
9:15 AM 75.2 °F - 71.4 °F 88% 30.17 in 10.0 mi SE 3.5 mph - N/A   Clear
9:35 AM 75.7 °F - 71.8 °F 87% 30.17 in 10.0 mi SE 4.6 mph - N/A   Clear
9:55 AM 76.8 °F - 69.4 °F 78% 30.17 in 10.0 mi SSE 6.9 mph - N/A   Clear
10:15 AM 77.2 °F - 69.6 °F 77% 30.17 in 10.0 mi SSE 5.8 mph - N/A   Clear
10:35 AM 77.9 °F - 70.2 °F 77% 30.17 in 10.0 mi SE 6.9 mph - N/A   Clear
10:55 AM 78.6 °F - 70.3 °F 76% 30.17 in 10.0 mi South 10.4 mph - N/A   Clear
11:15 AM 79.3 °F - 70.9 °F 75% 30.16 in 10.0 mi SE 6.9 mph - N/A   Clear
11:35 AM 79.3 °F - 71.2 °F 76% 30.16 in 10.0 mi SSE 6.9 mph - N/A   Clear
11:55 AM 79.7 °F - 71.8 °F 77% 30.16 in 10.0 mi SSE 6.9 mph - N/A   Clear
12:15 PM 81.9 °F 86.8 °F 72.3 °F 73% 30.15 in 10.0 mi SE 6.9 mph - N/A   Clear
12:35 PM 81.9 °F 86.2 °F 71.4 °F 70% 30.15 in 10.0 mi SE 5.8 mph - N/A   Clear
12:55 PM 81.7 °F 85.8 °F 71.1 °F 70% 30.14 in 10.0 mi SE 9.2 mph - N/A   Clear
1:15 PM 82.6 °F 87.3 °F 71.4 °F 69% 30.13 in 10.0 mi SSE 9.2 mph - N/A   Clear
1:35 PM 81.0 °F 84.9 °F 71.1 °F 72% 30.13 in 10.0 mi SSE 10.4 mph - N/A   Clear
1:55 PM 80.8 °F 84.7 °F 71.2 °F 73% 30.13 in 10.0 mi SSE 11.5 mph - N/A   Clear
2:15 PM 81.7 °F 86.0 °F 71.6 °F 71% 30.12 in 10.0 mi SE 9.2 mph 16.1 mph N/A   Clear
2:35 PM 80.1 °F 83.3 °F 70.3 °F 72% 30.12 in 10.0 mi SE 6.9 mph - N/A   Clear
2:55 PM 81.7 °F 85.6 °F 70.7 °F 69% 30.11 in 10.0 mi SE 5.8 mph - N/A   Clear
3:15 PM 81.3 °F 85.0 °F 70.2 °F 69% 30.10 in 10.0 mi SSE 6.9 mph - N/A   Scattered Clouds
3:35 PM 80.4 °F 83.6 °F 69.8 °F 70% 30.10 in 10.0 mi SE 8.1 mph - N/A   Scattered Clouds
3:55 PM 80.2 °F 83.3 °F 69.8 °F 70% 30.09 in 10.0 mi SE 8.1 mph - N/A   Mostly Cloudy
4:15 PM 80.6 °F 83.8 °F 69.4 °F 69% 30.09 in 10.0 mi SE 5.8 mph - N/A   Scattered Clouds
4:35 PM 80.6 °F 83.6 °F 69.3 °F 68% 30.09 in 10.0 mi South 5.8 mph - N/A   Scattered Clouds
4:55 PM 79.5 °F - 70.2 °F 73% 30.09 in 10.0 mi South 5.8 mph - N/A   Mostly Cloudy
5:15 PM 77.4 °F - 70.9 °F 80% 30.09 in 10.0 mi South 5.8 mph - N/A   Overcast
5:35 PM 76.1 °F - 71.1 °F 84% 30.08 in 7.0 mi South 5.8 mph - 0.01 in   Overcast
5:55 PM 76.1 °F - 72.0 °F 87% 30.08 in 7.0 mi Calm Calm - 0.02 in   Overcast
6:15 PM 75.4 °F - 72.3 °F 90% 30.08 in 10.0 mi ESE 4.6 mph - N/A   Scattered Clouds
6:35 PM 75.2 °F - 72.0 °F 90% 30.07 in 10.0 mi East 4.6 mph - N/A   Mostly Cloudy
6:55 PM 74.5 °F - 71.6 °F 91% 30.07 in 10.0 mi East 4.6 mph - N/A   Overcast
7:15 PM 74.3 °F - 72.0 °F 92% 30.07 in 10.0 mi ESE 3.5 mph - N/A   Overcast
7:35 PM 73.9 °F - 71.8 °F 93% 30.07 in 10.0 mi SE 3.5 mph - N/A   Overcast
7:55 PM 74.7 °F - 72.9 °F 94% 30.07 in 7.0 mi South 5.8 mph - N/A   Overcast
8:15 PM 74.1 °F - 72.7 °F 95% 30.07 in 10.0 mi Calm Calm - 0.01 in   Overcast
8:35 PM 73.8 °F - 72.5 °F 96% 30.08 in 10.0 mi Calm Calm - 0.01 in   Overcast
8:55 PM 73.8 °F - 71.8 °F 93% 30.08 in 10.0 mi Calm Calm - 0.01 in   Overcast
9:15 PM 73.4 °F - 71.8 °F 95% 30.09 in 10.0 mi Calm Calm - N/A   Overcast
9:35 PM 73.6 °F - 72.0 °F 95% 30.09 in 10.0 mi SW 5.8 mph - N/A   Overcast
9:55 PM 72.7 °F - 71.8 °F 97% 30.10 in 7.0 mi SW 8.1 mph - 0.01 in   Overcast
10:15 PM 72.0 °F - 71.6 °F 99% 30.09 in 10.0 mi WSW 5.8 mph - N/A   Overcast
10:35 PM 71.8 °F - 71.6 °F 99% 30.08 in 10.0 mi SW 3.5 mph - N/A   Mostly Cloudy
10:55 PM 72.0 °F - 71.6 °F 99% 30.08 in 10.0 mi Calm Calm - N/A   Overcast
11:15 PM 72.0 °F - 71.6 °F 99% 30.08 in 10.0 mi WSW 3.5 mph - N/A   Overcast
11:35 PM 71.8 °F - 71.6 °F 99% 30.07 in 10.0 mi SSW 3.5 mph - N/A   Overcast
11:55 PM 72.1 °F - 71.8 °F 99% 30.07 in 10.0 mi SW 3.5 mph - N/A   Overcast